Regional Weather Roundup
Issued by NWS Newport/Morehead, NC

Current Version | Previous Version | Text Only | Print | Product List | Glossary Off
Versions: 1 2 3 4 5 6 7 8 9 10 11 12 13 14 15 16 17 18 19 20 21 22 23 24 25 26 27 28 29 30 31 32 33 34 35 36 37 38 39 40 41 42 43 44 45 46 47 48 49 50
000 ASUS42 KMHX 240413 RWRMHX WEATHER ROUNDUP FOR EASTERN NORTH CAROLINA NATIONAL WEATHER SERVICE NEWPORT/MOREHEAD CITY NC 1200 AM EDT MON APR 24 2017 NOTE: "FAIR" INDICATES FEW OR NO CLOUDS BELOW 12,000 FEET WITH NO SIGNIFICANT WEATHER AND/OR OBSTRUCTIONS TO VISIBILITY NCZ015>017-031-032-045>047-102-103-240500- NORTH COAST CITY SKY/WX TMP DP RH WIND PRES REMARKS EDENTON CLOUDY 58 55 89 NE8 30.00F ELIZABETH CITY CLOUDY 57 56 96 NE17 30.00F KITTY HAWK CLOUDY 57 56 95 NE6 29.96F MANTEO CLOUDY 58 55 91 NE16G24 29.97F $$ NCZ045>047-081-094-103-104-240500- CENTRAL COAST CITY SKY/WX TMP DP RH WIND PRES REMARKS FRISCO CLOUDY 63 61 93 NE8 29.94F FOG $$ NCZ095-097-098-100-101-240500- SOUTHERN COAST CITY SKY/WX TMP DP RH WIND PRES REMARKS BEAUFORT CLOUDY 65 64 97 NE12G22 29.92F CEDAR ISLAND NOT AVBL JACKSONVILLE LGT RAIN 60 60 100 NE10 29.93S PINEY ISLAND CLOUDY N/A N/A N/A NE15G23 29.93F WILMINGTON LGT RAIN 61 61 100 NE12 29.89F $$ NCZ011>013-027>030-043-044-078>080-089-090>093-098-240500- COASTAL PLAIN CITY SKY/WX TMP DP RH WIND PRES REMARKS AHOSKIE N/A 51 51 97 NE7 30.01F CLINTON LGT RAIN 56 56 100 NE5 29.94S ELIZABETHTOWN CLOUDY 58 58 100 NE3 29.91F FOG GOLDSBORO CLOUDY 56 56 100 NE10 29.94F FOG GREENVILLE CLOUDY 55 54 94 NE8 30.00F HAVELOCK CLOUDY 63 59 87 NE13 29.95S KENANSVILLE NOT AVBL KINSTON CLOUDY 57 56 97 NE10 29.96F NEW BERN CLOUDY 59 58 96 NE10 29.96F RICHLANDS CLOUDY 58 57 97 NE12 29.94F ROCKY MOUNT CLOUDY 53 53 100 NE9 29.98F FOG WASHINGTON CLOUDY 57 56 96 NE9 29.98S WHITEVILLE CLOUDY 60 58 96 NE10 29.88F FOG $$ AMZ130-135-150-152-154-156-158-170-250-252-270-ANZ085-086-088-633-658-670-240500- MARINE OBSERVATIONS STATION/POSITION TIME TEMP WIND PRES WAVE SWELL AIR SEA DIR/SP/G HT/PER HT/PER (UTC) (F) (DEG/KT/KT) (MB) (FT/S) (FT/S) CHESAPEAKE LIGHT NOT AVBL 64 E VA BEACH 0350 56 53 40/ 16/ 19 1016.0 6/ 8 3/ 8 DUCK 0348 57 62 40/ 19/ 23 1014.7 2 E DUCK 0400 59 N/A 6/ 5 2/11 OREGON INLET 0348 30/ 12/ 18 N/A 13E OREGON INLT 0348 55 N/A 7/10 5/10 HATTERAS CG 0348 63 68 40/ 8/ 11 1013.5 DIAMOND BUOY 0350 71 77 360/ 6/ 8 1013.5 7/10 7/10 CAPE LOOKOUT 0400 65 30/ 19/ 21 1012.5 BEAUFORT LAB 0348 64 65 40/ 7/ 10 1012.4 30 SE NEW RVR IN 0308 66 50/ 17/ 23 1012.5 30 SE NEW RVR IN 0343 71 N/A 5/ 5 2/11 27 SE WRIGHTSVLE 0308 69 71 70/ 10/ 17 1011.2 5 SE WRIGHTSVLE 0308 67 69 80/ 16/ 27 1012.3 225 S CAPE HAT 0350 73 75 140/ 17/ 21 1013.7 5/ 5 2/11 41 SE CHARLESTON 0350 75 74 150/ 16/ 19 1009.1 5/ 6 2/10 $$

USA.gov is the U.S. government's official web portal to all federal, state and local government web resources and services.